This demonstration page uses our WeatherBlox Daily Observations layout. Learn more.

Left ArrowRight Arrow

30.21309, -93.2044

Hourly Observations for May 18, 2015

Temp ( °F °C ) Dew Point ( °F °C ) Humidity (%) Winds ( mph kmh ) Pressure ( in mb ) Visibility ( mi km ) Precip ( " mm )
12:15 am 00:15 Mostly Cloudy 77 25.1 75 24 94 94 SSE 12 19 30.06 1018 7 11 0.00 0.00
12:35 am 00:35 Cloudy 77 25.1 75 24 94 94 SSE 8 13 30.09 1019 7 11 0.00 0.00
12:55 am 00:55 Cloudy 77 25.2 75 24.1 94 94 SSE 6 9 30.09 1019 7 11 0.00 0.00
1:15 am 01:15 Cloudy 77 25.1 75 24 94 94 SSE 7 11 30.09 1019 7 11 0.00 0.00
1:35 am 01:35 Cloudy 77 25.1 75 24 94 94 SSE 7 11 30.09 1019 7 11 0.00 0.00
1:55 am 01:55 Cloudy 77 25.1 75 24 94 94 S 7 11 30.09 1019 7 11 0.00 0.00
2:15 am 02:15 Mostly Cloudy 77 25 75 24 94 94 S 6 9 30.09 1019 7 11 0.00 0.00
2:35 am 02:35 Mostly Cloudy 77 25 75 24 94 94 S 6 9 30.06 1018 7 11 0.00 0.00
2:55 am 02:55 Mostly Cloudy with Nearby Thunderstorms 77 24.8 75 24 95 95 S 7 11 30.06 1018 7 11 0.00 0.00
3:15 am 03:15 Cloudy 77 25 75 24 94 94 S 6 9 30.06 1018 7 11 0.00 0.00
3:35 am 03:35 Cloudy 76 24.7 75 24 96 96 SSE 6 9 30.06 1018 7 11 0.00 0.00
3:55 am 03:55 Cloudy 77 24.8 75 24 95 95 S 7 11 30.06 1018 7 11 0.00 0.00
4:15 am 04:15 Cloudy 77 24.8 75 24 95 95 S 5 7 30.06 1018 7 11 0.00 0.00
4:35 am 04:35 Cloudy 76 24.7 75 23.9 95 95 S 6 9 30.06 1018 7 11 0.00 0.00
4:55 am 04:55 Cloudy 76 24.5 75 23.7 95 95 S 6 9 30.06 1018 7 11 0.00 0.00
5:15 am 05:15 Partly Cloudy 76 24.5 74 23.6 95 95 S 5 7 30.06 1018 7 11 0.00 0.00
6:00 am 06:00 Mostly Clear with Mist and Fog 73 23 73 23 100 100 SE 6 9 30.06 1018 6 10 0.00 0.00
6:50 am 06:50 Partly Cloudy with Mist and Fog 75 24 73 23 94 94 SE 6 9 30.06 1018 5 8 0.00 0.00
7:45 am 07:45 Partly Cloudy with Mist and Fog 75 24 73 23 94 94 SSE 12 19 30.12 1020 5 8 0.00 0.00
8:45 am 08:45 Mostly Cloudy 81 27 75 24 84 84 SSE 12 19 30.12 1020 7 11 0.00 0.00
9:45 am 09:45 Mostly Cloudy 82 28 73 23 74 74 SSE 13 20 30.12 1020 7 11 0.00 0.00
10:55 am 10:55 Mostly Cloudy 84 29 73 23 70 70 SSE 13 20 30.15 1021 10 16 0.00 0.00
11:50 am 11:50 Mostly Cloudy 86 30 73 23 66 66 S 12 19 30.15 1021 10 16 0.00 0.00
12:47 pm 12:47 Mostly Cloudy 84 29 72 22 66 66 S 12 19 30.15 1021 10 16 0.00 0.00
1:47 pm 13:47 Mostly Cloudy with Thunderstorms 79 26 72 22 79 79 NNE 17 28 30.18 1022 10 16 0.00 0.00
2:40 pm 14:40 Cloudy with Thunderstorms 70 21 66 19 88 88 NE 14 22 30.18 1022 10 16 0.00 0.00
2:50 pm 14:50 Cloudy 72 22 66 19 83 83 NNE 13 20 30.18 1022 10 16 0.00 0.00
3:50 pm 15:50 Cloudy 72 22 66 19 83 83 NE 13 20 30.18 1022 10 16 0.00 0.00
9:50 pm 21:50 Mostly Clear 70 21 66 19 88 88 Calm 30.12 1020 10 16 0.00 0.00
10:15 pm 22:15 Clear 69 20.6 67 19.3 92 92 Calm 30.12 1020 10 16 0.00 0.00
10:35 pm 22:35 Clear 69 20.5 66 19.1 92 92 Calm 30.12 1020 10 16 0.00 0.00
10:55 pm 22:55 Clear 69 20.4 67 19.2 93 93 Calm 30.12 1020 10 16 0.00 0.00
11:15 pm 23:15 Clear 68 20.2 67 19.2 94 94 Calm 30.12 1020 10 16 0.00 0.00
11:35 pm 23:35 Clear 69 20.3 67 19.2 93 93 Calm 30.09 1019 10 16 0.00 0.00
11:55 pm 23:55 Clear 69 20.3 67 19.2 93 93 Calm 30.12 1020 10 16 0.00 0.00

Powered by AerisWeather